Printer-friendly version

IAU Minor Planet Center

Minor Planet Center

MPEC 2000-B05: 2000 AG205

The following Minor Planet Electronic Circular may be linked-to from your own Web pages, but must not otherwise be redistributed electronically.


Read MPEC 2000-B04 Read MPEC 2000-B06


M.P.E.C. 2000-B05                                Issued 2000 Jan. 16, 20:57 UT

     The Minor Planet Electronic Circulars contain information on unusual
         minor planets and routine data on comets.  They are published
   on behalf of Commission 20 of the International Astronomical Union by the
          Minor Planet Center, Smithsonian Astrophysical Observatory,
                          Cambridge, MA 02138, U.S.A.

             Prepared using the Tamkin Foundation Computer Network

             BMARSDEN@CFA.HARVARD.EDU or GWILLIAMS@CFA.HARVARD.EDU
          URL http://cfa-www.harvard.edu/iau/mpc.html  ISSN 1523-6714

                                  2000 AG205

Observations:
     K00AK5G* C2000 01 09.10288 03 33 55.99 +19 59 02.1          20.4 V      691
     K00AK5G  C2000 01 09.13198 03 33 55.42 +19 58 08.0                      691
     K00AK5G  C2000 01 09.15990 03 33 54.82 +19 57 16.2          20.5 V      691
     K00AK5G IC2000 01 10.15714 03 33 41.99 +19 26 29.5          19.8 V      691
     K00AK5G  C2000 01 10.17946 03 33 41.52 +19 25 49.0          21.3 V      691
     K00AK5G  C2000 01 10.20174 03 33 41.19 +19 25 08.3          20.9 V      691
     K00AK5G HC2000 01 12.16505 03 33 28.03 +18 25 22.6          20.8 V      691
     K00AK5G HC2000 01 12.17099 03 33 28.00 +18 25 12.2          21.7 V      691
     K00AK5G HC2000 01 12.17713 03 33 27.95 +18 25 01.6          20.9 V      691
     K00AK5G HC2000 01 14.23475 03 33 30.30 +17 23 35.0          20.8 V      691
     K00AK5G HC2000 01 14.24066 03 33 30.38 +17 23 25.0          20.2 V      691
     K00AK5G HC2000 01 14.24632 03 33 30.34 +17 23 15.4          21.1 V      691

Observer details:
691 Steward Observatory, Kitt Peak.  Observers A. E. Gleason, M. T. Read,
    J. L. Montani.  0.9-m Spacewatch telescope.

Orbital elements:
2000 AG205
Epoch 1999 Dec. 28.0 TT = JDT 2451540.5                 Williams
M 334.01096              (2000.0)            P               Q
n   0.28251668     Peri.  248.96897     -0.88527379     -0.34020880
a   2.3002409      Node   270.00889     +0.44686442     -0.81114788
e   0.5208541      Incl.   18.48724     -0.12885075     -0.47570693
P   3.49           H   19.7           G   0.15
From 12 observations 2000 Jan. 9-14.

Ephemeris:
2000 AG205               a,e,i = 2.30, 0.52, 18                  q = 1.1022
Date    TT    R. A. (2000) Decl.     Delta      r     Elong.  Phase     V
2000 01 07    03 34.61   +21 04.7    0.588    1.436   130.4    31.4    20.7
2000 01 17    03 34.01   +16 03.3    0.593    1.372   118.9    38.9    20.8
2000 01 27    03 39.72   +11 35.3    0.604    1.311   108.9    45.3    20.9
2000 02 06    03 50.97   +07 42.6    0.618    1.255   100.5    50.6    21.0
2000 02 16    04 07.04   +04 19.4    0.629    1.206    93.8    54.8    21.1
2000 02 26    04 27.21   +01 16.6    0.637    1.164    88.6    58.2    21.1
2000 03 07    04 51.07   -01 33.5    0.641    1.132    84.9    60.8    21.2
2000 03 17    05 18.44   -04 16.9    0.640    1.111    82.6    62.6    21.2
2000 03 27    05 49.24   -06 56.8    0.636    1.102    81.6    63.6    21.2
2000 04 06    06 23.67   -09 33.1    0.631    1.106    82.0    63.6    21.2
2000 04 16    07 01.98   -12 03.2    0.628    1.122    83.6    62.7    21.2
2000 04 26    07 44.13   -14 21.4    0.630    1.150    86.1    60.8    21.2
2000 05 06    08 29.63   -16 19.9    0.642    1.188    89.2    58.1    21.2
2000 05 16    09 17.27   -17 52.4    0.668    1.235    92.4    54.9    21.3
2000 05 26    10 05.13   -18 55.5    0.711    1.288    95.1    51.6    21.4
2000 06 05    10 51.29   -19 31.8    0.772    1.347    96.9    48.4    21.6
2000 06 15    11 34.35   -19 49.1    0.852    1.410    97.6    45.6    21.8
2000 06 25    12 13.61   -19 55.5    0.950    1.476    97.2    43.1    22.1

Gareth V. Williams           (C) Copyright 2000 MPC           M.P.E.C. 2000-B05

Read MPEC 2000-B04 Read MPEC 2000-B06


Our Web policy. Index to the CBAT/MPC/ICQ pages.


Valid HTML 4.01!